Location: Unspecified
(0.0000°N, 0.0000°E)
Time: 19:08:29
(UTC+00:00)

Altair - Visible Passes

Search period start: 14 July 2020 00:00
Search period end: 24 July 2020 00:00
Orbit: 1501 x 1683 km, 47.2° (Epoch: 13 July)

Date Brightness Start Highest point End Pass type
(mag) Time Alt. Az. Time Alt. Az. Time Alt. Az.
14 Jul 7.7 18:41:05 10° NW 18:50:56 88° NE 19:01:07 10° SE visible
14 Jul 9.2 20:49:23 10° W 20:55:59 19° SW 20:59:13 17° SSW visible
15 Jul 8.6 05:28:07 10° SSW 05:36:47 38° SE 05:45:08 10° ENE visible
15 Jul 7.7 18:15:57 10° NW 18:25:45 80° NE 18:35:53 10° SE visible
15 Jul 9.2 20:23:32 10° W 20:30:42 22° SW 20:35:58 15° S visible
16 Jul 8.7 05:03:11 10° SSW 05:11:35 34° SE 05:19:41 10° ENE visible
16 Jul 9.1 19:57:47 10° W 20:05:25 25° SW 20:12:43 11° S visible
17 Jul 8.8 04:38:18 10° S 04:46:23 30° SE 04:54:11 10° ENE visible
17 Jul 9.0 19:32:07 10° WNW 19:40:10 28° SW 19:48:26 10° S visible
18 Jul 8.9 04:13:26 10° S 04:21:10 27° SE 04:28:37 10° E visible
18 Jul 8.9 19:06:32 10° WNW 19:14:55 32° SW 19:23:33 10° S visible
19 Jul 9.0 03:50:03 14° S 03:55:56 24° SE 04:02:58 10° E visible
19 Jul 8.8 18:41:01 10° WNW 18:49:41 35° SW 18:58:38 10° SSE visible
20 Jul 9.1 03:26:47 16° SSE 03:30:40 21° SE 03:37:14 10° E visible
20 Jul 7.5 05:25:54 10° SW 05:35:31 79° NW 05:44:47 10° NE visible
20 Jul 8.7 18:15:33 10° WNW 18:24:27 40° SW 18:33:40 10° SSE visible
21 Jul 9.2 03:03:31 17° SSE 03:05:24 18° SE 03:11:23 10° E visible
21 Jul 7.5 05:01:35 14° SW 05:10:22 88° NW 05:19:40 10° NE visible
22 Jul 9.3 02:40:17 16° SE 02:40:17 16° SE 02:45:24 10° E visible
22 Jul 7.5 04:38:20 22° SW 04:45:13 84° SE 04:54:32 10° NE visible
23 Jul 9.5 02:17:01 13° ESE 02:17:01 13° ESE 02:19:11 10° ESE visible
23 Jul 7.5 04:15:06 34° SSW 04:20:03 75° SE 04:29:22 10° NE visible
